This is the latest recevied weather packets stored in our database for station/object K7FLA. If no packets are shown the sender has not sent any weather packets the latest 10 day(s).
| Time | Temp. | Humidity | Pressure | Rain* | Wind** | Luminosity | Snow |
|---|---|---|---|---|---|---|---|
| 1777503873 | 26.67° C | 25% | 1094.1 hPa | 0 mm | - | 470 W/m² | - |
| 1777503569 | 26.67° C | 23% | 1094.3 hPa | 0 mm | - | 483 W/m² | - |
| 1777503267 | 26.67° C | 23% | 1094.1 hPa | 0 mm | - | 503 W/m² | - |
| 1777502963 | 26.67° C | 22% | 1094.2 hPa | 0 mm | - | 517 W/m² | - |
| 1777502661 | 26.67° C | 22% | 1094.3 hPa | 0 mm | - | 533 W/m² | - |
| 1777502357 | 26.67° C | 21% | 1094.3 hPa | 0 mm | - | 546 W/m² | - |
| 1777502054 | 26.67° C | 19% | 1094.7 hPa | 0 mm | - | 566 W/m² | - |
| 1777501750 | 26.67° C | 21% | 1094.7 hPa | 0 mm | - | 581 W/m² | - |
| 1777501448 | 26.67° C | 21% | 1094.5 hPa | 0 mm | - | 595 W/m² | - |
| 1777501145 | 26.67° C | 22% | 1094.6 hPa | 0 mm | - | 612 W/m² | - |
| 1777500844 | 26.67° C | 22% | 1094.6 hPa | 0 mm | - | 619 W/m² | - |
| 1777500540 | 26.67° C | 21% | 1094.7 hPa | 0 mm | - | 634 W/m² | - |
| 1777500236 | 26.67° C | 21% | 1094.9 hPa | 0 mm | - | 647 W/m² | - |
| 1777499933 | 26.67° C | 20% | 1094.8 hPa | 0 mm | - | 661 W/m² | - |
| 1777499629 | 26.67° C | 20% | 1094.9 hPa | 0 mm | - | 671 W/m² | - |
| 1777499327 | 27.22° C | 20% | 1095 hPa | 0 mm | - | 682 W/m² | - |
| 1777499024 | 27.22° C | 21% | 1094.8 hPa | 0 mm | - | 693 W/m² | - |
| 1777498720 | 26.67° C | 23% | 1095 hPa | 0 mm | - | 707 W/m² | - |
| 1777498417 | 26.67° C | 22% | 1095.1 hPa | 0 mm | - | 717 W/m² | - |
| 1777498114 | 26.67° C | 20% | 1095.2 hPa | 0 mm | - | 725 W/m² | - |
| 1777497812 | 26.67° C | 19% | 1095.1 hPa | 0 mm | - | 742 W/m² | - |
| 1777497508 | 26.67° C | 20% | 1095.1 hPa | 0 mm | - | 753 W/m² | - |
| 1777497204 | 26.67° C | 25% | 1095.3 hPa | 0 mm | - | 755 W/m² | - |
| 1777496901 | 26.67° C | 25% | 1095.2 hPa | 0 mm | - | 767 W/m² | - |
| 1777496598 | 26.67° C | 24% | 1095.1 hPa | 0 mm | - | 776 W/m² | - |
* Rain latest hour (hover to see other rain measurements)
** Current wind speed in m/s (hover to see current wind gust speed)